Torna al catalogo

FENGYUN 1C DEB

AttivoLEO
NORAD 31485·DEBRIS·🇨🇳 China

Lanciato May 10, 1999 da Taiyuan Satellite Launch Center

Loading…

Prossimi Passaggi (prossime 24 ore)

TLE

AggiornatoSource: Space-Track

Epoca: Sep 13, 2026, 04:55 UTC

1 31485U 99025BVZ 26256.20511058  .00002042  00000-0  21159-2 0  9997
2 31485 102.7038 158.9287 0443742  84.5840 280.5720 13.41341909941235

Traccia FENGYUN 1C DEB in tempo reale con AllMySat

Download on the App Store